This demonstration page uses our WeatherBlox Daily Observations layout. Learn more.

Left ArrowRight Arrow

34.16533, -84.80231

Hourly Observations for March 1, 2017

Temp ( °F °C ) Dew Point ( °F °C ) Humidity (%) Winds ( mph kmh ) Pressure ( in mb ) Visibility ( mi km ) Precip ( " mm )
12:53 am 00:53 Clear 60 15.6 58 14.4 93 93 SE 3 6 30.07 1018 10 16 0.00 0.00
1:53 am 01:53 Clear 61 16.1 59 15 93 93 SSE 6 9 30.05 1018 10 16 0.00 0.00
2:53 am 02:53 Clear 61 16.1 59 15 93 93 S 5 7 30.03 1017 10 16 0.00 0.00
3:43 am 03:43 Mostly Cloudy 62 16.7 59 15 90 90 Calm 30.03 1017 10 16 0.00 0.00
3:53 am 03:53 Cloudy 62 16.7 59 15 90 90 VRB 3 6 30.02 1017 10 16 0.00 0.00
4:53 am 04:53 Cloudy 63 17.2 59 15 87 87 S 6 9 30.01 1016 10 16 0.00 0.00
5:20 am 05:20 Cloudy 64 17.8 59 15 84 84 S 9 15 30.03 1017 10 16 0.00 0.00
5:53 am 05:53 Cloudy 64 17.8 60 15.6 87 87 S 6 9 30.00 1016 10 16 0.00 0.00
6:53 am 06:53 Mostly Cloudy 64 17.8 60 15.6 87 87 S 8 13 30.00 1016 10 16 0.00 0.00
7:53 am 07:53 Mostly Sunny 65 18.3 59 15 81 81 S 10 17 29.98 1015 10 16 0.00 0.00
8:53 am 08:53 Mostly Sunny 67 19.4 60 15.6 79 79 S 13 20 29.96 1015 10 16 0.00 0.00
9:53 am 09:53 Mostly Cloudy 70 21.1 60 15.6 71 71 S 9 15 29.97 1015 10 16 0.00 0.00
10:08 am 10:08 Mostly Cloudy 70 21.1 60 15.6 71 71 SW 8 13 30.00 1016 10 16 0.00 0.00
10:16 am 10:16 Cloudy 71 21.7 60 15.6 68 68 SSW 9 15 30.00 1016 10 16 0.00 0.00
10:53 am 10:53 Cloudy 72 22.2 60 15.6 66 66 VRB 7 11 29.96 1015 10 16 0.00 0.00
11:53 am 11:53 Partly Cloudy 75 23.9 59 15 58 58 SSW 10 17 29.92 1013 10 16 0.00 0.00
12:53 pm 12:53 Cloudy 75 23.9 59 15 58 58 SW 8 13 29.91 1013 10 16 0.00 0.00
1:53 pm 13:53 Mostly Cloudy 76 24.4 59 15 56 56 SW 13 20 29.88 1012 10 16 0.00 0.00
2:53 pm 14:53 Mostly Cloudy 77 25 59 15 54 54 VRB 7 11 29.84 1011 10 16 0.00 0.00
3:53 pm 15:53 Cloudy 77 25 58 14.4 52 52 WSW 8 13 29.84 1011 10 16 0.00 0.00
4:53 pm 16:53 Partly Cloudy 77 25 58 14.4 52 52 VRB 7 11 29.83 1010 10 16 0.00 0.00
5:31 pm 17:31 Mostly Cloudy with Thunderstorms 75 23.9 58 14.4 55 55 VRB 6 9 29.83 1010 10 16 0.00 0.00
5:46 pm 17:46 Mostly Cloudy with Nearby Thunderstorms 73 22.8 59 15 62 62 VRB 5 7 29.85 1011 10 16 0.00 0.00
5:53 pm 17:53 Mostly Cloudy with Nearby Thunderstorms 73 22.8 60 15.6 64 64 VRB 5 7 29.84 1011 10 16 0.00 0.00
6:23 pm 18:23 Cloudy with Thunderstorms 64 17.8 60 15.6 87 87 VRB 5 7 29.94 1014 6 10 0.05 1.27
6:53 pm 18:53 Cloudy with Nearby Thunderstorms 62 16.7 60 15.6 93 93 VRB 3 6 29.91 1013 4 6 0.15 3.81
7:07 pm 19:07 Mostly Cloudy with Light Rain 61 16.1 59 15 93 93 VRB 3 6 29.94 1014 10 16 0.01 0.25
7:53 pm 19:53 Cloudy 60 15.6 58 14.4 93 93 Calm 29.91 1013 10 16 0.01 0.25
8:53 pm 20:53 Cloudy 60 15.6 57 13.9 90 90 Calm 29.93 1013 10 16 0.00 0.00
9:53 pm 21:53 Cloudy 59 15 57 13.9 93 93 Calm 29.95 1014 10 16 0.00 0.00
10:53 pm 22:53 Cloudy 58 14.4 54 12.2 87 87 Calm 29.97 1015 10 16 0.00 0.00
11:53 pm 23:53 Mostly Clear 56 13.3 42 5.6 60 60 NNW 15 24 30.01 1016 10 16 0.00 0.00

Powered by AerisWeather